| time (UTC) | temp F | wind direction | speed MPH | gust MPH | rain 1hr in | rain 24hr in | rain mn in | humidity % | barometer mb |
| 20260901070525 | 65 | 0 | 0.0 | 0.0 | 0.00 | 0.00 | 0.00 | 90 | 1017.7 |
| 20260901070044 | 65 | 0 | 0.0 | 0.0 | 0.00 | 0.00 | 0.00 | 90 | 1017.7 |
| 20260901065519 | 65 | 0 | 0.0 | 0.0 | 0.00 | 0.00 | 0.00 | 90 | 1017.7 |
| 20260901065027 | 65 | 0 | 0.0 | 0.0 | 0.00 | 0.00 | 0.00 | 90 | 1017.8 |
| 20260901064549 | 65 | 0 | 0.0 | 0.0 | 0.00 | 0.00 | 0.00 | 90 | 1017.8 |
| 20260901064025 | 65 | 173 | 0.0 | 0.0 | 0.00 | 0.00 | 0.00 | 90 | 1017.7 |
| 20260901063523 | 65 | 0 | 0.0 | 0.0 | 0.00 | 0.00 | 0.00 | 90 | 1017.8 |
| 20260901063105 | 65 | 0 | 0.0 | 0.0 | 0.00 | 0.00 | 0.00 | 90 | 1017.8 |
| 20260901062524 | 65 | 196 | 0.0 | 0.0 | 0.00 | 0.00 | 0.00 | 90 | 1017.7 |
| 20260901062025 | 65 | 0 | 0.0 | 0.0 | 0.00 | 0.00 | 0.00 | 90 | 1017.9 |
| 20260901061548 | 65 | 0 | 0.0 | 0.0 | 0.00 | 0.00 | 0.00 | 90 | 1017.7 |
| 20260901061024 | 65 | 0 | 0.0 | 0.0 | 0.00 | 0.00 | 0.00 | 90 | 1017.8 |
| 20260901060525 | 65 | 0 | 0.0 | 0.0 | 0.00 | 0.00 | 0.00 | 90 | 1017.7 |
| 20260901060044 | 65 | 0 | 0.0 | 0.0 | 0.00 | 0.00 | 0.00 | 90 | 1017.8 |
| 20260901055523 | 65 | 0 | 0.0 | 0.0 | 0.00 | 0.00 | 0.00 | 89 | 1017.7 |
| 20260901055028 | 65 | 202 | 0.0 | 1.0 | 0.00 | 0.00 | 0.00 | 90 | 1017.7 |
| 20260901054545 | 65 | 0 | 0.0 | 1.0 | 0.00 | 0.00 | 0.00 | 90 | 1017.7 |
| 20260901054030 | 65 | 0 | 0.0 | 0.0 | 0.00 | 0.00 | 0.00 | 89 | 1017.7 |
| 20260901053525 | 65 | 0 | 0.0 | 1.0 | 0.00 | 0.00 | 0.00 | 90 | 1017.8 |
| 20260901053052 | 65 | 0 | 0.0 | 1.0 | 0.00 | 0.00 | 0.00 | 89 | 1017.9 |
| 20260901052528 | 65 | 0 | 0.0 | 0.0 | 0.00 | 0.00 | 0.00 | 89 | 1018.0 |
| 20260901052021 | 65 | 0 | 0.0 | 0.0 | 0.00 | 0.00 | 0.00 | 89 | 1018.0 |
| 20260901051544 | 65 | 0 | 0.0 | 0.0 | 0.00 | 0.00 | 0.00 | 89 | 1018.1 |
| 20260901051025 | 65 | 0 | 0.0 | 0.0 | 0.00 | 0.00 | 0.00 | 88 | 1018.1 |
| 20260901050525 | 65 | 0 | 0.0 | 0.0 | 0.00 | 0.00 | 0.00 | 88 | 1018.0 |
| 20260901050048 | 65 | 0 | 0.0 | 0.0 | 0.00 | 0.00 | 0.00 | 88 | 1017.9 |
| 20260901045524 | 65 | 0 | 0.0 | 0.0 | 0.00 | 0.01 | 0.00 | 88 | 1017.9 |
| 20260901045024 | 65 | 0 | 0.0 | 0.0 | 0.00 | 0.01 | 0.00 | 88 | 1017.9 |
| 20260901044546 | 65 | 0 | 0.0 | 1.0 | 0.00 | 0.01 | 0.00 | 88 | 1018.1 |
| 20260901044025 | 65 | 0 | 0.0 | 2.0 | 0.00 | 0.01 | 0.00 | 88 | 1018.1 |
| 20260901043524 | 65 | 0 | 0.0 | 2.0 | 0.00 | 0.01 | 0.00 | 88 | 1017.9 |
| 20260901043052 | 65 | 229 | 0.0 | 2.0 | 0.00 | 0.01 | 0.00 | 88 | 1018.0 |
| 20260901042530 | 65 | 0 | 0.0 | 2.0 | 0.00 | 0.01 | 0.00 | 88 | 1018.1 |
| 20260901042025 | 65 | 0 | 0.0 | 0.0 | 0.00 | 0.01 | 0.00 | 88 | 1018.1 |
| 20260901041541 | 65 | 0 | 0.0 | 0.0 | 0.00 | 0.01 | 0.00 | 88 | 1018.3 |
| 20260901041025 | 65 | 0 | 0.0 | 0.0 | 0.00 | 0.01 | 0.00 | 88 | 1018.1 |
| 20260901040525 | 65 | 162 | 0.0 | 0.0 | 0.00 | 0.01 | 0.00 | 87 | 1018.2 |
| 20260901040048 | 66 | 0 | 0.0 | 2.0 | 0.00 | 0.01 | 0.00 | 88 | 1018.2 |
| 20260901035525 | 65 | 0 | 0.0 | 2.0 | 0.00 | 0.25 | 0.01 | 87 | 1018.2 |
| 20260901035027 | 66 | 0 | 0.0 | 0.0 | 0.00 | 0.25 | 0.01 | 87 | 1018.1 |
| 20260901034542 | 66 | 0 | 0.0 | 1.0 | 0.00 | 0.25 | 0.01 | 87 | 1018.2 |
| 20260901034025 | 66 | 0 | 0.0 | 1.0 | 0.00 | 0.25 | 0.01 | 87 | 1018.2 |
| 20260901033525 | 66 | 0 | 0.0 | 1.0 | 0.00 | 0.25 | 0.01 | 87 | 1018.1 |
| 20260901033106 | 66 | 124 | 0.0 | 1.0 | 0.00 | 0.25 | 0.01 | 87 | 1018.1 |
| 20260901032525 | 66 | 0 | 0.0 | 2.0 | 0.00 | 0.25 | 0.01 | 87 | 1018.1 |
| 20260901032025 | 66 | 0 | 0.0 | 2.0 | 0.00 | 0.25 | 0.01 | 87 | 1018.3 |
| 20260901031543 | 66 | 0 | 0.0 | 1.0 | 0.00 | 0.25 | 0.01 | 87 | 1018.3 |
| 20260901031025 | 66 | 0 | 0.0 | 1.0 | 0.00 | 0.25 | 0.01 | 86 | 1018.3 |
| 20260901030521 | 66 | 103 | 0.0 | 2.0 | 0.00 | 0.25 | 0.01 | 87 | 1018.3 |
| 20260901030042 | 66 | 0 | 0.0 | 2.0 | 0.00 | 0.25 | 0.01 | 87 | 1018.4 |
| 20260901025529 | 66 | 213 | 0.0 | 3.0 | 0.00 | 0.28 | 0.01 | 86 | 1018.4 |
| 20260901025027 | 66 | 142 | 0.0 | 3.0 | 0.00 | 0.28 | 0.01 | 86 | 1018.3 |
| 20260901024545 | 66 | 136 | 0.0 | 3.0 | 0.00 | 0.28 | 0.01 | 87 | 1018.4 |
| 20260901024026 | 66 | 122 | 1.0 | 3.0 | 0.00 | 0.28 | 0.01 | 86 | 1018.3 |
| 20260901023527 | 66 | 127 | 0.0 | 2.0 | 0.00 | 0.28 | 0.01 | 86 | 1018.5 |
| 20260901023052 | 66 | 167 | 0.0 | 2.0 | 0.00 | 0.28 | 0.01 | 86 | 1018.5 |
| 20260901022524 | 66 | 0 | 0.0 | 1.0 | 0.00 | 0.28 | 0.01 | 86 | 1018.6 |
| 20260901022022 | 66 | 0 | 0.0 | 1.0 | 0.00 | 0.28 | 0.01 | 86 | 1018.7 |
| 20260901021551 | 66 | 191 | 0.0 | 3.0 | 0.00 | 0.28 | 0.01 | 86 | 1018.6 |
| 20260901021025 | 66 | 138 | 1.0 | 3.0 | 0.00 | 0.28 | 0.01 | 86 | 1018.7 |
| 20260901020525 | 66 | 76 | 1.0 | 3.0 | 0.00 | 0.28 | 0.01 | 86 | 1018.8 |
| 20260901020047 | 66 | 94 | 1.0 | 3.0 | 0.00 | 0.28 | 0.01 | 86 | 1018.7 |
| 20260901015528 | 67 | 173 | 0.0 | 1.0 | 0.00 | 0.28 | 0.01 | 86 | 1018.8 |
| 20260901015025 | 67 | 144 | 0.0 | 2.0 | 0.00 | 0.28 | 0.01 | 86 | 1018.8 |
| 20260901014556 | 67 | 139 | 0.0 | 2.0 | 0.00 | 0.28 | 0.01 | 86 | 1018.8 |
| 20260901014024 | 67 | 198 | 0.0 | 2.0 | 0.00 | 0.28 | 0.01 | 86 | 1018.8 |
| 20260901013519 | 67 | 0 | 0.0 | 2.0 | 0.00 | 0.28 | 0.01 | 86 | 1018.8 |
| 20260901013045 | 67 | 172 | 1.0 | 2.0 | 0.00 | 0.28 | 0.01 | 86 | 1018.7 |
| 20260901012525 | 67 | 0 | 1.0 | 3.0 | 0.00 | 0.28 | 0.01 | 85 | 1018.7 |
| 20260901012025 | 67 | 106 | 0.0 | 3.0 | 0.00 | 0.28 | 0.01 | 85 | 1018.7 |
| 20260901011546 | 67 | 123 | 1.0 | 3.0 | 0.00 | 0.28 | 0.01 | 85 | 1018.6 |
| 20260901011025 | 67 | 158 | 1.0 | 3.0 | 0.00 | 0.28 | 0.01 | 85 | 1018.6 |
| 20260901010526 | 68 | 127 | 0.0 | 2.0 | 0.00 | 0.28 | 0.01 | 85 | 1018.6 |
| 20260901010045 | 68 | 218 | 0.0 | 3.0 | 0.00 | 0.28 | 0.01 | 85 | 1018.6 |
| 20260901005527 | 68 | 181 | 1.0 | 3.0 | 0.00 | 0.28 | 0.01 | 85 | 1018.6 |
| 20260901005025 | 68 | 238 | 0.0 | 4.0 | 0.00 | 0.28 | 0.01 | 84 | 1018.6 |
| 20260901004600 | 68 | 147 | 1.0 | 4.0 | 0.00 | 0.28 | 0.01 | 84 | 1018.6 |
| 20260901004024 | 68 | 110 | 0.0 | 4.0 | 0.00 | 0.28 | 0.01 | 84 | 1018.6 |
| 20260901003525 | 68 | 0 | 1.0 | 3.0 | 0.00 | 0.28 | 0.01 | 84 | 1018.6 |
| 20260901003044 | 68 | 0 | 0.0 | 3.0 | 0.00 | 0.28 | 0.01 | 83 | 1018.7 |
| 20260901002524 | 68 | 177 | 1.0 | 3.0 | 0.00 | 0.28 | 0.01 | 83 | 1018.7 |
| 20260901002023 | 69 | 214 | 0.0 | 3.0 | 0.00 | 0.28 | 0.01 | 83 | 1018.5 |
| 20260901001549 | 69 | 229 | 1.0 | 4.0 | 0.00 | 0.28 | 0.01 | 82 | 1018.6 |
| 20260901001023 | 69 | 75 | 2.0 | 4.0 | 0.00 | 0.28 | 0.01 | 82 | 1018.7 |
| 20260901000525 | 69 | 126 | 1.0 | 4.0 | 0.00 | 0.28 | 0.01 | 82 | 1018.6 |
| 20260901000058 | 69 | 250 | 1.0 | 4.0 | 0.00 | 0.28 | 0.01 | 81 | 1018.7 |
| 20260831235525 | 69 | 131 | 1.0 | 2.0 | 0.00 | 0.28 | 0.01 | 80 | 1018.6 |
| 20260831235028 | 69 | 109 | 0.0 | 3.0 | 0.00 | 0.28 | 0.01 | 80 | 1018.8 |
| 20260831234543 | 69 | 191 | 0.0 | 3.0 | 0.00 | 0.28 | 0.01 | 79 | 1018.5 |
| 20260831234023 | 69 | 184 | 1.0 | 2.0 | 0.00 | 0.28 | 0.01 | 79 | 1018.5 |
| 20260831233523 | 69 | 219 | 0.0 | 4.0 | 0.00 | 0.28 | 0.01 | 79 | 1018.6 |
| 20260831233046 | 70 | 97 | 0.0 | 4.0 | 0.00 | 0.28 | 0.01 | 79 | 1018.7 |
| 20260831232526 | 70 | 165 | 1.0 | 3.0 | 0.00 | 0.28 | 0.01 | 78 | 1018.7 |
| 20260831232026 | 70 | 0 | 0.0 | 1.0 | 0.00 | 0.28 | 0.01 | 78 | 1018.6 |
| 20260831231544 | 70 | 158 | 0.0 | 2.0 | 0.00 | 0.28 | 0.01 | 77 | 1018.7 |
| 20260831231025 | 70 | 196 | 1.0 | 2.0 | 0.00 | 0.28 | 0.01 | 77 | 1018.6 |
| 20260831230556 | 70 | 0 | 0.0 | 2.0 | 0.00 | 0.28 | 0.01 | 78 | 1018.5 |
| 20260831230045 | 70 | 200 | 1.0 | 2.0 | 0.00 | 0.28 | 0.01 | 77 | 1018.5 |
| 20260831225525 | 70 | 172 | 0.0 | 2.0 | 0.00 | 0.28 | 0.01 | 78 | 1018.6 |
| 20260831225030 | 70 | 131 | 1.0 | 2.0 | 0.00 | 0.28 | 0.01 | 78 | 1018.6 |
| 20260831224546 | 70 | 128 | 0.0 | 2.0 | 0.00 | 0.28 | 0.01 | 78 | 1018.6 |
| 20260831224025 | 71 | 131 | 1.0 | 3.0 | 0.00 | 0.28 | 0.01 | 78 | 1018.5 |
| 20260831223529 | 71 | 123 | 1.0 | 4.0 | 0.00 | 0.28 | 0.01 | 79 | 1018.7 |
| 20260831223045 | 71 | 119 | 1.0 | 4.0 | 0.00 | 0.28 | 0.01 | 78 | 1018.6 |
| 20260831222524 | 71 | 136 | 2.0 | 6.0 | 0.00 | 0.28 | 0.01 | 78 | 1018.5 |
| 20260831222026 | 71 | 84 | 2.0 | 6.0 | 0.00 | 0.28 | 0.01 | 77 | 1018.6 |
| 20260831221543 | 71 | 150 | 3.0 | 6.0 | 0.00 | 0.28 | 0.01 | 76 | 1018.6 |
| 20260831221024 | 71 | 130 | 2.0 | 6.0 | 0.00 | 0.28 | 0.01 | 76 | 1018.8 |
| 20260831220520 | 71 | 141 | 3.0 | 6.0 | 0.00 | 0.28 | 0.01 | 76 | 1018.7 |
| 20260831220044 | 71 | 104 | 1.0 | 6.0 | 0.00 | 0.28 | 0.01 | 76 | 1018.7 |
| 20260831215524 | 71 | 98 | 2.0 | 5.0 | 0.00 | 0.28 | 0.01 | 76 | 1018.7 |
| 20260831215026 | 71 | 123 | 0.0 | 5.0 | 0.00 | 0.28 | 0.01 | 76 | 1018.7 |
| 20260831214545 | 71 | 143 | 1.0 | 6.0 | 0.00 | 0.28 | 0.01 | 76 | 1018.7 |
| 20260831214024 | 71 | 124 | 3.0 | 6.0 | 0.00 | 0.28 | 0.01 | 75 | 1018.7 |
| 20260831213525 | 71 | 143 | 4.0 | 6.0 | 0.00 | 0.28 | 0.01 | 75 | 1018.6 |
| 20260831213043 | 71 | 129 | 4.0 | 8.0 | 0.00 | 0.28 | 0.01 | 74 | 1018.7 |
| 20260831212526 | 71 | 103 | 3.0 | 8.0 | 0.00 | 0.28 | 0.01 | 74 | 1018.6 |
| 20260831212028 | 71 | 122 | 3.0 | 5.0 | 0.00 | 0.28 | 0.01 | 75 | 1018.6 |
| 20260831211543 | 71 | 91 | 2.0 | 6.0 | 0.00 | 0.28 | 0.01 | 75 | 1018.7 |
| 20260831211022 | 72 | 127 | 4.0 | 7.0 | 0.00 | 0.28 | 0.01 | 74 | 1018.7 |
| 20260831210523 | 72 | 186 | 2.0 | 8.0 | 0.00 | 0.28 | 0.01 | 74 | 1018.7 |
| 20260831210046 | 72 | 139 | 3.0 | 8.0 | 0.00 | 0.28 | 0.01 | 74 | 1018.7 |
| 20260831205525 | 72 | 127 | 2.0 | 5.0 | 0.00 | 0.28 | 0.01 | 73 | 1018.7 |
| 20260831205025 | 73 | 146 | 1.0 | 3.0 | 0.00 | 0.28 | 0.01 | 74 | 1018.7 |
| 20260831204545 | 73 | 129 | 1.0 | 3.0 | 0.00 | 0.28 | 0.01 | 74 | 1018.6 |
| 20260831204026 | 73 | 108 | 1.0 | 7.0 | 0.00 | 0.28 | 0.01 | 74 | 1018.5 |
| 20260831203524 | 73 | 118 | 2.0 | 7.0 | 0.00 | 0.28 | 0.01 | 73 | 1018.6 |
| 20260831203044 | 73 | 120 | 4.0 | 7.0 | 0.00 | 0.28 | 0.01 | 72 | 1018.6 |
| 20260831202526 | 73 | 140 | 2.0 | 5.0 | 0.00 | 0.28 | 0.01 | 73 | 1018.5 |
| 20260831202026 | 72 | 0 | 2.0 | 5.0 | 0.00 | 0.28 | 0.01 | 73 | 1018.6 |
| 20260831201546 | 72 | 119 | 2.0 | 4.0 | 0.00 | 0.28 | 0.01 | 73 | 1018.7 |
| 20260831201025 | 73 | 110 | 2.0 | 5.0 | 0.00 | 0.28 | 0.01 | 72 | 1018.5 |
| 20260831200525 | 73 | 106 | 2.0 | 5.0 | 0.00 | 0.28 | 0.01 | 72 | 1018.6 |
| 20260831200049 | 73 | 119 | 3.0 | 5.0 | 0.00 | 0.28 | 0.01 | 73 | 1018.5 |
| 20260831195524 | 73 | 117 | 3.0 | 6.0 | 0.00 | 0.28 | 0.01 | 71 | 1018.6 |
| 20260831195026 | 73 | 132 | 1.0 | 6.0 | 0.00 | 0.28 | 0.01 | 72 | 1018.7 |
| 20260831194605 | 73 | 131 | 3.0 | 6.0 | 0.00 | 0.28 | 0.01 | 71 | 1018.9 |
| 20260831194021 | 73 | 106 | 1.0 | 6.0 | 0.00 | 0.28 | 0.01 | 71 | 1018.9 |
| 20260831193519 | 73 | 102 | 3.0 | 6.0 | 0.00 | 0.28 | 0.01 | 70 | 1018.9 |
| 20260831193046 | 73 | 158 | 1.0 | 7.0 | 0.00 | 0.28 | 0.01 | 71 | 1018.9 |
| 20260831192524 | 73 | 80 | 2.0 | 7.0 | 0.00 | 0.28 | 0.01 | 71 | 1019.0 |
| 20260831192028 | 73 | 125 | 3.0 | 6.0 | 0.00 | 0.28 | 0.01 | 69 | 1019.1 |
| 20260831191546 | 74 | 83 | 1.0 | 4.0 | 0.00 | 0.28 | 0.01 | 68 | 1019.0 |
| 20260831191027 | 74 | 107 | 1.0 | 3.0 | 0.00 | 0.28 | 0.01 | 67 | 1019.1 |
| 20260831190524 | 74 | 58 | 2.0 | 4.0 | 0.00 | 0.28 | 0.01 | 66 | 1019.2 |
| 20260831190107 | 74 | 109 | 2.0 | 4.0 | 0.00 | 0.28 | 0.01 | 65 | 1019.3 |
| 20260831185525 | 74 | 101 | 2.0 | 4.0 | 0.00 | 0.28 | 0.01 | 65 | 1019.4 |
| 20260831185023 | 74 | 108 | 1.0 | 3.0 | 0.00 | 0.28 | 0.01 | 66 | 1019.4 |
| 20260831184543 | 74 | 135 | 1.0 | 3.0 | 0.00 | 0.28 | 0.01 | 64 | 1019.5 |
| 20260831184028 | 74 | 156 | 2.0 | 5.0 | 0.00 | 0.28 | 0.01 | 64 | 1019.6 |
| 20260831183523 | 74 | 142 | 3.0 | 5.0 | 0.00 | 0.28 | 0.01 | 64 | 1019.6 |
| 20260831183041 | 75 | 212 | 1.0 | 4.0 | 0.00 | 0.28 | 0.01 | 65 | 1019.5 |
| 20260831182524 | 74 | 131 | 2.0 | 4.0 | 0.00 | 0.28 | 0.01 | 65 | 1019.5 |
| 20260831182025 | 75 | 115 | 1.0 | 4.0 | 0.00 | 0.28 | 0.01 | 63 | 1019.5 |
| 20260831181548 | 75 | 120 | 1.0 | 5.0 | 0.00 | 0.28 | 0.01 | 64 | 1019.5 |
| 20260831181024 | 75 | 0 | 0.0 | 5.0 | 0.00 | 0.28 | 0.01 | 64 | 1019.5 |
| 20260831180522 | 75 | 77 | 1.0 | 3.0 | 0.00 | 0.28 | 0.01 | 63 | 1019.5 |
| 20260831180046 | 75 | 210 | 1.0 | 3.0 | 0.00 | 0.28 | 0.01 | 63 | 1019.5 |
| 20260831175521 | 75 | 225 | 1.0 | 3.0 | 0.00 | 0.28 | 0.01 | 63 | 1019.7 |
| 20260831175021 | 75 | 159 | 1.0 | 3.0 | 0.00 | 0.28 | 0.01 | 63 | 1019.8 |
| 20260831174543 | 75 | 0 | 0.0 | 3.0 | 0.00 | 0.28 | 0.01 | 65 | 1019.8 |
| 20260831174024 | 75 | 247 | 0.0 | 3.0 | 0.00 | 0.28 | 0.01 | 65 | 1019.7 |
| 20260831173524 | 75 | 214 | 2.0 | 3.0 | 0.00 | 0.28 | 0.01 | 62 | 1019.8 |
| 20260831173046 | 75 | 167 | 1.0 | 3.0 | 0.00 | 0.28 | 0.01 | 63 | 1019.8 |
| 20260831172524 | 74 | 207 | 0.0 | 4.0 | 0.00 | 0.28 | 0.01 | 64 | 1019.8 |
| 20260831172025 | 74 | 193 | 2.0 | 4.0 | 0.00 | 0.28 | 0.01 | 63 | 1019.7 |
| 20260831171544 | 74 | 224 | 0.0 | 3.0 | 0.00 | 0.28 | 0.01 | 64 | 1019.8 |
| 20260831171024 | 74 | 99 | 0.0 | 3.0 | 0.00 | 0.28 | 0.01 | 67 | 1019.8 |
| 20260831170521 | 73 | 136 | 1.0 | 3.0 | 0.00 | 0.28 | 0.01 | 66 | 1019.7 |
| 20260831170044 | 73 | 101 | 1.0 | 3.0 | 0.00 | 0.28 | 0.01 | 66 | 1019.8 |
| 20260831165525 | 73 | 65 | 1.0 | 3.0 | 0.00 | 0.28 | 0.01 | 67 | 1019.8 |
| 20260831165023 | 73 | 150 | 2.0 | 3.0 | 0.00 | 0.28 | 0.01 | 66 | 1019.9 |
| 20260831164551 | 74 | 192 | 0.0 | 2.0 | 0.00 | 0.28 | 0.01 | 66 | 1019.9 |
| 20260831164025 | 74 | 101 | 0.0 | 2.0 | 0.00 | 0.28 | 0.01 | 65 | 1019.9 |
| 20260831163525 | 74 | 78 | 0.0 | 3.0 | 0.00 | 0.28 | 0.01 | 64 | 1020.0 |
| 20260831163048 | 73 | 0 | 0.0 | 3.0 | 0.00 | 0.28 | 0.01 | 64 | 1020.0 |
| 20260831162524 | 73 | 134 | 0.0 | 3.0 | 0.00 | 0.28 | 0.01 | 65 | 1020.1 |
| 20260831162024 | 73 | 113 | 1.0 | 3.0 | 0.00 | 0.28 | 0.01 | 63 | 1020.0 |
| 20260831161544 | 73 | 22 | 1.0 | 3.0 | 0.00 | 0.28 | 0.01 | 64 | 1020.2 |
| 20260831161028 | 74 | 104 | 1.0 | 4.0 | 0.00 | 0.28 | 0.01 | 65 | 1020.3 |
| 20260831160526 | 74 | 96 | 0.0 | 5.0 | 0.00 | 0.28 | 0.01 | 65 | 1020.3 |
| 20260831160043 | 74 | 178 | 2.0 | 5.0 | 0.00 | 0.28 | 0.01 | 64 | 1020.3 |
| 20260831155524 | 74 | 122 | 1.0 | 5.0 | 0.00 | 0.28 | 0.01 | 65 | 1020.4 |
| 20260831155025 | 74 | 103 | 1.0 | 4.0 | 0.00 | 0.28 | 0.01 | 64 | 1020.4 |
| 20260831154615 | 74 | 71 | 1.0 | 3.0 | 0.00 | 0.28 | 0.01 | 68 | 1020.5 |
| 20260831154025 | 73 | 37 | 0.0 | 3.0 | 0.00 | 0.28 | 0.01 | 68 | 1020.6 |
| 20260831153525 | 73 | 32 | 1.0 | 5.0 | 0.00 | 0.28 | 0.01 | 66 | 1020.7 |
| 20260831153054 | 74 | 8 | 1.0 | 5.0 | 0.00 | 0.28 | 0.01 | 67 | 1020.8 |
| 20260831152518 | 73 | 119 | 1.0 | 6.0 | 0.00 | 0.28 | 0.01 | 69 | 1020.8 |
| 20260831152023 | 72 | 202 | 2.0 | 6.0 | 0.00 | 0.28 | 0.01 | 68 | 1020.7 |
| 20260831151546 | 73 | 129 | 2.0 | 7.0 | 0.00 | 0.28 | 0.01 | 68 | 1020.9 |
| 20260831151025 | 73 | 119 | 1.0 | 7.0 | 0.00 | 0.28 | 0.01 | 69 | 1020.7 |
| 20260831150525 | 72 | 79 | 1.0 | 4.0 | 0.00 | 0.28 | 0.01 | 70 | 1020.7 |
| 20260831150047 | 72 | 77 | 1.0 | 7.0 | 0.00 | 0.28 | 0.01 | 71 | 1020.7 |
| 20260831145524 | 71 | 108 | 3.0 | 7.0 | 0.00 | 0.28 | 0.01 | 71 | 1020.7 |
| 20260831145026 | 71 | 131 | 1.0 | 2.0 | 0.00 | 0.28 | 0.01 | 73 | 1020.6 |
| 20260831144546 | 71 | 37 | 0.0 | 4.0 | 0.00 | 0.28 | 0.01 | 73 | 1020.7 |
| 20260831144024 | 70 | 34 | 1.0 | 5.0 | 0.00 | 0.28 | 0.01 | 75 | 1020.7 |
| 20260831143519 | 70 | 30 | 1.0 | 5.0 | 0.00 | 0.28 | 0.01 | 74 | 1020.7 |
| 20260831143044 | 70 | 122 | 1.0 | 3.0 | 0.00 | 0.28 | 0.01 | 76 | 1020.7 |
| 20260831142525 | 69 | 25 | 1.0 | 3.0 | 0.00 | 0.28 | 0.01 | 76 | 1020.6 |
| 20260831142024 | 69 | 352 | 0.0 | 5.0 | 0.00 | 0.28 | 0.01 | 77 | 1020.6 |
| 20260831141547 | 69 | 29 | 1.0 | 5.0 | 0.00 | 0.28 | 0.01 | 76 | 1020.5 |
| 20260831141025 | 69 | 50 | 1.0 | 5.0 | 0.00 | 0.28 | 0.01 | 78 | 1020.5 |
| 20260831140527 | 69 | 34 | 0.0 | 3.0 | 0.00 | 0.28 | 0.01 | 78 | 1020.5 |
| 20260831140045 | 68 | 33 | 1.0 | 5.0 | 0.00 | 0.28 | 0.01 | 78 | 1020.5 |
| 20260831135525 | 68 | 27 | 2.0 | 5.0 | 0.00 | 0.28 | 0.01 | 77 | 1020.5 |
| 20260831135025 | 68 | 34 | 3.0 | 4.0 | 0.00 | 0.28 | 0.01 | 78 | 1020.5 |
| 20260831134552 | 68 | 36 | 2.0 | 4.0 | 0.00 | 0.28 | 0.01 | 77 | 1020.5 |
| 20260831134023 | 68 | 20 | 1.0 | 3.0 | 0.00 | 0.28 | 0.01 | 78 | 1020.4 |
| 20260831133523 | 69 | 11 | 1.0 | 3.0 | 0.00 | 0.28 | 0.01 | 81 | 1020.3 |
| 20260831133051 | 68 | 0 | 0.0 | 3.0 | 0.00 | 0.28 | 0.01 | 79 | 1020.4 |
| 20260831132524 | 68 | 65 | 0.0 | 4.0 | 0.00 | 0.28 | 0.01 | 80 | 1020.5 |
| 20260831132025 | 68 | 49 | 1.0 | 4.0 | 0.00 | 0.28 | 0.01 | 81 | 1020.5 |
| 20260831131554 | 68 | 100 | 1.0 | 3.0 | 0.00 | 0.28 | 0.01 | 81 | 1020.5 |
| 20260831131026 | 68 | 36 | 1.0 | 3.0 | 0.00 | 0.28 | 0.01 | 81 | 1020.4 |
| 20260831130523 | 68 | 0 | 1.0 | 5.0 | 0.00 | 0.28 | 0.01 | 82 | 1020.5 |
| 20260831130047 | 67 | 37 | 1.0 | 5.0 | 0.00 | 0.28 | 0.01 | 82 | 1020.4 |
| 20260831125525 | 67 | 29 | 0.0 | 3.0 | 0.00 | 0.28 | 0.01 | 84 | 1020.4 |
| 20260831125026 | 67 | 34 | 0.0 | 3.0 | 0.00 | 0.28 | 0.01 | 86 | 1020.4 |
| 20260831124539 | 66 | 42 | 1.0 | 3.0 | 0.00 | 0.28 | 0.01 | 86 | 1020.4 |
| 20260831124023 | 66 | 39 | 1.0 | 5.0 | 0.00 | 0.28 | 0.01 | 88 | 1020.3 |
| 20260831123524 | 65 | 31 | 2.0 | 5.0 | 0.00 | 0.28 | 0.01 | 88 | 1020.2 |
| 20260831123046 | 65 | 34 | 1.0 | 4.0 | 0.00 | 0.28 | 0.01 | 90 | 1020.2 |
| 20260831122528 | 65 | 23 | 1.0 | 4.0 | 0.00 | 0.28 | 0.01 | 92 | 1020.1 |
| 20260831122024 | 65 | 15 | 1.0 | 3.0 | 0.00 | 0.28 | 0.01 | 93 | 1020.0 |
| 20260831121545 | 65 | 32 | 0.0 | 1.0 | 0.00 | 0.28 | 0.01 | 95 | 1019.9 |
| 20260831121026 | 64 | 32 | 0.0 | 2.0 | 0.00 | 0.28 | 0.01 | 96 | 1019.9 |
| 20260831120525 | 63 | 0 | 1.0 | 3.0 | 0.00 | 0.28 | 0.01 | 96 | 1019.9 |
| 20260831120047 | 63 | 24 | 1.0 | 3.0 | 0.00 | 0.28 | 0.01 | 96 | 1019.9 |
| 20260831115524 | 63 | 4 | 0.0 | 3.0 | 0.00 | 0.28 | 0.01 | 96 | 1019.9 |
| 20260831115024 | 63 | 0 | 1.0 | 3.0 | 0.00 | 0.28 | 0.01 | 96 | 1019.9 |
| 20260831114547 | 63 | 25 | 0.0 | 1.0 | 0.00 | 0.28 | 0.01 | 96 | 1019.9 |
| 20260831114025 | 63 | 0 | 0.0 | 1.0 | 0.00 | 0.28 | 0.01 | 97 | 1019.8 |
| 20260831113525 | 63 | 0 | 0.0 | 1.0 | 0.00 | 0.28 | 0.01 | 97 | 1019.7 |
| 20260831113046 | 63 | 0 | 0.0 | 1.0 | 0.00 | 0.28 | 0.01 | 97 | 1019.7 |
| 20260831112523 | 63 | 0 | 0.0 | 1.0 | 0.00 | 0.28 | 0.01 | 98 | 1019.6 |
| 20260831112032 | 63 | 0 | 0.0 | 1.0 | 0.00 | 0.28 | 0.01 | 98 | 1019.7 |
| 20260831111546 | 62 | 0 | 0.0 | 0.0 | 0.00 | 0.28 | 0.01 | 97 | 1019.5 |
| 20260831111028 | 62 | 0 | 0.0 | 0.0 | 0.00 | 0.28 | 0.01 | 97 | 1019.6 |
| 20260831110524 | 61 | 0 | 0.0 | 0.0 | 0.00 | 0.28 | 0.01 | 97 | 1019.6 |
| 20260831110046 | 61 | 0 | 0.0 | 0.0 | 0.00 | 0.28 | 0.01 | 97 | 1019.4 |
| 20260831105525 | 61 | 0 | 0.0 | 0.0 | 0.00 | 0.28 | 0.01 | 97 | 1019.4 |
| 20260831105023 | 61 | 0 | 0.0 | 0.0 | 0.00 | 0.28 | 0.01 | 96 | 1019.4 |
| 20260831104554 | 61 | 0 | 0.0 | 0.0 | 0.00 | 0.28 | 0.01 | 96 | 1019.4 |
| 20260831104026 | 61 | 0 | 0.0 | 0.0 | 0.00 | 0.28 | 0.01 | 96 | 1019.4 |
| 20260831103524 | 61 | 0 | 0.0 | 0.0 | 0.00 | 0.28 | 0.01 | 96 | 1019.3 |
| 20260831103047 | 61 | 0 | 0.0 | 0.0 | 0.00 | 0.28 | 0.01 | 96 | 1019.3 |
| 20260831102524 | 61 | 0 | 0.0 | 0.0 | 0.00 | 0.28 | 0.01 | 96 | 1019.3 |
| 20260831102028 | 61 | 0 | 0.0 | 0.0 | 0.00 | 0.28 | 0.01 | 96 | 1019.1 |
| 20260831101547 | 61 | 0 | 0.0 | 0.0 | 0.00 | 0.28 | 0.01 | 96 | 1019.1 |
| 20260831101024 | 61 | 0 | 0.0 | 0.0 | 0.00 | 0.28 | 0.01 | 96 | 1019.1 |
| 20260831100522 | 61 | 0 | 0.0 | 0.0 | 0.00 | 0.28 | 0.01 | 96 | 1019.0 |
| 20260831100046 | 61 | 0 | 0.0 | 0.0 | 0.00 | 0.28 | 0.01 | 96 | 1019.0 |
| 20260831095525 | 61 | 0 | 0.0 | 0.0 | 0.00 | 0.28 | 0.01 | 96 | 1018.8 |
| 20260831095025 | 62 | 0 | 0.0 | 0.0 | 0.00 | 0.28 | 0.01 | 96 | 1018.7 |
| 20260831094550 | 62 | 0 | 0.0 | 0.0 | 0.00 | 0.28 | 0.01 | 96 | 1018.7 |
| 20260831094024 | 62 | 0 | 0.0 | 0.0 | 0.00 | 0.28 | 0.01 | 96 | 1018.6 |
| 20260831093528 | 62 | 0 | 0.0 | 0.0 | 0.00 | 0.28 | 0.01 | 96 | 1018.5 |
| 20260831093133 | 62 | 0 | 0.0 | 0.0 | 0.00 | 0.28 | 0.01 | 96 | 1018.5 |
| 20260831092527 | 62 | 0 | 0.0 | 0.0 | 0.00 | 0.28 | 0.01 | 96 | 1018.5 |
| 20260831092018 | 62 | 0 | 0.0 | 1.0 | 0.00 | 0.28 | 0.01 | 96 | 1018.4 |
| 20260831091548 | 62 | 0 | 0.0 | 1.0 | 0.00 | 0.28 | 0.01 | 96 | 1018.4 |
| 20260831091019 | 62 | 0 | 0.0 | 0.0 | 0.00 | 0.28 | 0.01 | 96 | 1018.3 |
| 20260831090524 | 62 | 0 | 0.0 | 0.0 | 0.00 | 0.28 | 0.01 | 96 | 1018.3 |
| 20260831090043 | 62 | 0 | 0.0 | 0.0 | 0.00 | 0.28 | 0.01 | 96 | 1018.3 |
| 20260831085524 | 62 | 0 | 0.0 | 0.0 | 0.00 | 0.28 | 0.01 | 96 | 1018.3 |
| 20260831085024 | 62 | 0 | 0.0 | 0.0 | 0.00 | 0.28 | 0.01 | 96 | 1018.2 |
| 20260831084629 | 63 | 0 | 0.0 | 0.0 | 0.00 | 0.28 | 0.01 | 96 | 1018.1 |
| 20260831084025 | 63 | 0 | 0.0 | 0.0 | 0.00 | 0.28 | 0.01 | 96 | 1018.2 |
| 20260831083525 | 63 | 0 | 0.0 | 0.0 | 0.00 | 0.28 | 0.01 | 96 | 1018.1 |
| 20260831083049 | 63 | 0 | 0.0 | 0.0 | 0.00 | 0.28 | 0.01 | 96 | 1018.0 |
| 20260831082523 | 63 | 0 | 0.0 | 0.0 | 0.00 | 0.28 | 0.01 | 96 | 1018.1 |
| 20260831082026 | 63 | 0 | 0.0 | 0.0 | 0.00 | 0.28 | 0.01 | 96 | 1018.1 |
| 20260831081542 | 63 | 0 | 0.0 | 0.0 | 0.00 | 0.28 | 0.01 | 96 | 1018.0 |
| 20260831081024 | 63 | 0 | 0.0 | 0.0 | 0.00 | 0.28 | 0.01 | 96 | 1017.9 |
| 20260831080525 | 63 | 0 | 0.0 | 0.0 | 0.00 | 0.28 | 0.01 | 96 | 1017.8 |
| 20260831080111 | 63 | 0 | 0.0 | 0.0 | 0.00 | 0.28 | 0.01 | 96 | 1017.8 |
| 20260831075525 | 64 | 0 | 0.0 | 0.0 | 0.00 | 0.28 | 0.01 | 96 | 1017.8 |
| 20260831075026 | 64 | 0 | 0.0 | 0.0 | 0.00 | 0.28 | 0.01 | 96 | 1017.8 |
| 20260831074549 | 64 | 0 | 0.0 | 0.0 | 0.00 | 0.28 | 0.01 | 96 | 1017.7 |
| 20260831074024 | 64 | 0 | 0.0 | 0.0 | 0.00 | 0.28 | 0.01 | 95 | 1017.6 |
| 20260831073524 | 64 | 0 | 0.0 | 0.0 | 0.00 | 0.28 | 0.01 | 95 | 1017.4 |
| 20260831073045 | 64 | 0 | 0.0 | 0.0 | 0.00 | 0.28 | 0.01 | 95 | 1017.5 |
| 20260831072523 | 64 | 0 | 0.0 | 0.0 | 0.00 | 0.28 | 0.01 | 96 | 1017.4 |
| 20260831072025 | 64 | 0 | 0.0 | 0.0 | 0.00 | 0.28 | 0.01 | 96 | 1017.4 |
| 20260831071550 | 64 | 0 | 0.0 | 0.0 | 0.00 | 0.28 | 0.01 | 95 | 1017.3 |
| 20260831071025 | 64 | 0 | 0.0 | 0.0 | 0.00 | 0.28 | 0.01 | 95 | 1017.3 |